Accueil
METAR-TAF:

METAR-TAF

Aéroports :

Flessingue, Pays-Bas

latitude: 51-27N, longitude: 3-36E, altitude: 10 m

Observation

Le bulletin a été fait il y a 38 minutes, à 05:55 UTC
Vent 21 kt de sud
Température 13°C
Humidité 94%
Pression 1006 hPa
Visibilité 10 km ou plus

METAR: EHFS 210555Z AUTO 18021KT 9999 FEW006/// 13/12 Q1006

Heure: 08:33 (06:33 UTC)


TAF: absent

Observations et prévisions météorologiques de plus de 4000 aéroports (messages METAR et TAF).

Les stations disponibles sont représentées par des disques jaunes et rouges sur la carte.

Passer la souris dessus pour voir le nom de la station.

Cliquer dessus pour voir les observations et prévisions météorologiques.

Pour changer de carte: cliquez sur les boutons verts avec une croix noire pour zoomer, sur le bouton vert avec un tiret pour effectuer un zoom arrière, ou sur les flèches vertes pour les cartes adjacentes.


METAR-TAF: